Retour au catalogue

CZ-2C R/B

ActifSSO
NORAD 40262·ROCKET BODY·🇨🇳 China

Lancé Sep 28, 2014 depuis Jiuquan Satellite Launch Center

Loading…

Prochains Passages (prochaines 24 heures)

TLE

FraisSource: Space-Track

Époque: Sep 14, 2026, 21:04 UTC

1 40262U 14059B   26257.87818986  .00000472  00000-0  75035-4 0  9997
2 40262  98.3456 122.4666 0040025 258.8357 100.8350 14.76560164642859

Suivez CZ-2C R/B en temps réel avec AllMySat

Download on the App Store